User: anonymous   Login
Location: Hokitika
(42.7170°S, 170.9670°E)
Time: 00:27:37
(UTC+13:00)
Language:

Meteor 2-13 Rocket - Orbit

View from above orbital plane
View from above orbital plane
View from above satellite
View from above satellite

Ground track
Ground track

The orbit data is extracted from the following two-line orbital elements,

1 16409U 85119B   19321.74864979 +.00000023 +00000-0 +70937-5 0  9990
2 16409 082.5394 016.1212 0016134 068.1291 292.1583 13.84809277712827
Epoch (UTC): 17 November 2019 17:58:03
Eccentricity: 0.0016134
inclination: 82.5394°
perigee height: 935 km
apogee height: 958 km
right ascension of ascending node: 16.1212°
argument of perigee: 68.1291°
revolutions per day: 13.84809277
mean anomaly at epoch: 292.1583°
orbit number at epoch: 71282

The dashed part of the orbit path shows where the satellite is in the earth's shadow,  

DLR